Regional Weather Roundup
Issued by NWS Sterling, VA

Home | Current Version | Previous Version | Graphics & Text | Print | Product List | Glossary On
Versions: 1 2 3 4 5 6 7 8 9 10 11 12 13 14 15 16 17 18 19 20 21 22 23 24 25 26 27 28 29 30 31 32 33 34 35 36 37 38 39 40 41 42 43 44 45 46 47 48 49 50
070
ASUS41 KLWX 292110
RWRLWX

REGIONAL WEATHER ROUNDUP
NATIONAL WEATHER SERVICE BALTIMORE MD/WASHINGTON DC
500 PM EDT SAT APR 29 2017

Note: "FAIR" indicates few or no clouds below 12,000 feet
with no significant weather and/or obstructions to visibility.
 TC=TEMPERATURE CELSIUS

 * =Non NWS site. Station does not report precipitation (e.g. rain,
    snow, etc.), thunder, or fog.

DCZ001-MDZ009-015-VAZ040>042-051-053>054-292200-
WASHINGTON METRO

CITY           SKY/WX    TMP DP  RH WIND       PRES   REMARKS
WASHINGTON NAT CLOUDY    90  63  40 W9        30.03F HX  91
DULLES         CLOUDY    86  67  52 W5        30.04F
FT BELVOIR     CLOUDY    90  66  43 SW5       30.03S HX  92
QUANTICO       CLOUDY    90  68  48 W7        30.03F HX  94
COLLEGE PARK*  MOSUNNY   88  64  43 W3        30.03S
LEESBURG*      CLOUDY    88  70  55 CALM      30.05F HX  92
MANASSAS*        N/A     88  67  49 W5        30.04F HX  91

$$

MDZ006>007-011-014-292200-
BALTIMORE METRO

CITY           SKY/WX    TMP DP  RH WIND       PRES   REMARKS
BWI AIRPORT    CLOUDY    86  63  45 W10       30.02F
MD SCIENCE CTR   N/A     89  60  37 MISG      30.03S
MARTIN STATE   CLOUDY    86  64  48 NW14      30.04S
ANNAPOLIS      CLOUDY    90  68  48 SW7       30.02F HX  94
FORT MEADE*    CLOUDY    86  63  45 NW8       30.05F

$$

MDZ012-015-019>023-292200-
MARYLAND EASTERN SHORE

CITY           SKY/WX    TMP DP  RH WIND       PRES   REMARKS
OCEAN CITY     MOSUNNY   86  71  60 SW14      30.05F HX  91
SALISBURY      SUNNY     86  72  62 SW16      30.04F HX  92
BAY BRIDGE AP* MOSUNNY   86  66  51 W5        30.03F
CAMBRIDGE*     SUNNY     88  72  58 SW8G14    30.04S HX  94
EASTON*        MOSUNNY   88  70  55 W8        30.08S HX  92

$$

MDZ017>025-292200-
SOUTHERN MARYLAND

CITY           SKY/WX    TMP DP  RH WIND       PRES   REMARKS
PATUXENT RIVER CLOUDY    89  74  60 SW8       30.03F HX  98
ST INIGOES     MOSUNNY   88  70  55 SW8       30.03F HX  93
LEONARDTOWN*   MOSUNNY   88  68  51 SW12      30.06S HX  91

$$

MDZ003>005-292200-
NORTH CENTRAL MARYLAND

CITY           SKY/WX    TMP DP  RH WIND       PRES   REMARKS
FREDERICK*     SUNNY     90  72  55 W3        30.06F HX  96
HAGERSTOWN APT CLOUDY    85  63  47 W6        30.06F
WESTMINSTER*   CLOUDY    88  63  42 W5        30.06F

$$

MDZ501>502-292200-
WESTERN MARYLAND

CITY           SKY/WX    TMP DP  RH WIND       PRES   REMARKS
OAKLAND*         N/A     72  61  68 W8        30.18F
CUMBERLAND*    CLOUDY    86  59  39 SW5       30.10F

$$

VAZ025>031-292200-
SHENANDOAH VALLEY

CITY           SKY/WX    TMP DP  RH WIND       PRES   REMARKS
WINCHESTER*    CLOUDY    82  64  54 NW5       30.06F
FRONT ROYAL*   CLOUDY    86  68  54 W3        30.05F
LURAY*         CLOUDY    86  64  48 CALM      30.06F
NEW MARKET*    CLOUDY    87  63  44 CALM      30.05F
STAUNTON*      CLOUDY    85  64  50 SW7       30.10F
WAYNESBORO*    CLOUDY    85  69  57 CALM      30.10F

$$

WVZ021-048>050-054>055-292200-
EASTERN WEST VIRGINIA PANHANDLE

CITY           SKY/WX    TMP DP  RH WIND       PRES   REMARKS
MARTINSBURG    CLOUDY    85  61  44 W7        30.04F
PETERSBURG*    PTSUNNY   84  64  49 W7        30.08F

$$

VAZ036>039-050-292200-
CENTRAL FOOTHILLS

CITY           SKY/WX    TMP DP  RH WIND       PRES   REMARKS
CHARLOTTESVILL CLOUDY    88  68  51 SW8       30.06F HX  91
CULPEPER*      CLOUDY    87  68  52 SW6       30.05S HX  91
ORANGE*        CLOUDY    86  66  51 SW9       30.05F
GORDONSVILLE*  CLOUDY    88  69  53 SW12      30.05S HX  91
WARRENTON*     CLOUDY    89  62  41 SW6       30.04F

$$

VAZ055>057-292200-
NORTH AND CENTRAL PIEDMONT

CITY           SKY/WX    TMP DP  RH WIND       PRES   REMARKS
FREDERICKSBRG* CLOUDY    90  70  52 SW12      30.03F HX  95
STAFFORD*      CLOUDY    87  69  54 SW8       30.07F HX  91

$$

NCZ024-NYZ072-PAZ021-071-VAZ022-071-292200-
OTHER REGIONAL OBSERVATIONS

CITY           SKY/WX    TMP DP  RH WIND       PRES   REMARKS
NEW YORK CITY  CLOUDY    82  58  43 W9G23     30.01R
PHILADELPHIA   CLOUDY    85  57  38 NW15G28   30.03S
PITTSBURGH     MOSUNNY   72  63  73 S7        30.09F
ROANOKE        PTSUNNY   86  69  56 S13       30.11F HX  90
RICHMOND       CLOUDY    88  72  58 SW14      30.06F HX  94
RALEIGH        PTSUNNY   88  70  55 SW12      30.13F HX  93

$$

ANZ530>537-292200-
MARINE OBSERVATIONS

STATION/POSITION TIME  TEMP    WIND        PRES
                       AIR SEA DIR/SP/G
                 (UTC) (F)     (DEG/KT/KT) (MB)
THOMAS PT LIGHT  2100   82 61  220/  3/  4   N/A
BALT KEY BRIDGE  2042   85     290/ 12/ 13 1016.7F
COVE POINT       2042   87     260/  6/ 12 1017.7S
LEWISETTA        2042   87 72  240/  9/ 10 1017.3S
SOLOMONS ISLAND  2042   85 63  250/ 12/ 13   N/A
PINEY POINT      2048          270/ 10/ 11   N/A

$$





USA.gov is the U.S. government's official web portal to all federal, state and local government web resources and services.